Regional Weather Roundup
Issued by NWS

Home | Current Version | Previous Version | Text Only | Print | Product List | Glossary On
Versions: 1 2 3 4 5 6 7 8 9 10 11 12 13 14 15 16 17 18 19 20 21 22 23 24 25 26 27 28 29 30 31 32 33 34 35 36 37 38 39 40 41 42 43 44 45 46 47 48 49 50
267
ASUS42 KTAE 141516
RWRTAE
RWRTAE
North Florida/South Alabama/Southwest Georgia Weather Roundup
National Weather Service Tallahassee Florida
1000 AM EST THU NOV 14 2019

Note: "fair" indicates few or no clouds below 12,000 feet with no
significant weather and/or obstructions to visibility.

!FLZ017-115-028-034-025-141600
...North Florida...

CITY           SKY/WX    TMP DP  RH WIND       PRES   REMARKS
TALL INTL ARPT CLOUDY    51  40  65 NE7       30.23S
FSU LOVE BLDG    N/A     50  41  71 E5          N/A
APALACHICOLA   CLOUDY    52  41  66 NE10      30.20R
PERRY          CLOUDY    50  43  78 NE9       30.22S
CROSS CITY       N/A     55  50  81 NE9       30.19R
JACKSONVILLE   CLOUDY    55  49  80 N8        30.21R
$$

!FLZ112-006-005-002-011-141600
...Florida Panhandle...

CITY           SKY/WX    TMP DP  RH WIND       PRES   REMARKS
MARIANNA       CLOUDY    47  35  63 NE10      30.25S WCI  42
BONIFAY        CLOUDY    48  36  63 NE6       30.26S
PANAMA CITY NW CLOUDY    50  37  61 N8        30.22S
TYNDALL AFB    CLOUDY    51  40  66 NE12      30.19
TYND DRONE APT PTSUNNY   53  41  65 NE13      30.20F
DE FUNIAK SPR  CLOUDY    46  36  67 NE7       30.25S WCI  43
EGLIN AFB      PTSUNNY   49  37  63 NE8       30.23
DESTIN         FAIR      50  39  66 NE8       30.23S
HURLBURT       CLOUDY    49  36  61 NE8       30.21
CRESTVIEW      FAIR      49  37  63 VRB5      30.26S
PENSACOLA      FAIR      48  38  68 NE8       30.23R WCI  44
$$

!ALZ063-066-141600
...South Alabama...

CITY           SKY/WX    TMP DP  RH WIND       PRES   REMARKS
DOTHAN         CLOUDY    46  35  65 NE7       30.28S WCI  42
OZARK CAIRNS   PTSUNNY   46  35  66 NE7       30.25F WCI  42
FT RUCKER HELI CLOUDY    46  37  73 NE5       30.26R WCI  43
RUCKER HELI 3  CLOUDY    45  36  70 SE6       30.24F WCI  42
RUCKER HELI 2  CLOUDY    45  35  67 E8        30.25S WCI  41
FLORALA APT    NOT AVBL
ANDALUSIA      FAIR      47  34  60 NE6       30.25  WCI  44
TROY           CLOUDY    43  33  68 NE7       30.28R WCI  39
EUFALA         NOT AVBL
MOBILE         CLOUDY    47  39  74 NE7       30.24F WCI  44
$$

!GAZ120>161-141600
...Southwest and South Central Georgia...

CITY           SKY/WX    TMP DP  RH WIND       PRES   REMARKS
THOMASVILLE    CLOUDY    45  36  70 NE10      30.25F WCI  39
BAINBRIDGE     CLOUDY    46  35  64 NE13      30.26F WCI  40
MOODY AFB      CLOUDY    46  37  68 N9        30.26  WCI  42
VALDOSTA       CLOUDY    47  37  68 N7        30.27R WCI  44
MOULTRIE       CLOUDY    45  36  70 NE7       30.26F WCI  41
BLAKELY        CLOUDY    43  34  70 NE9       30.27F WCI  37
ALBANY         CLOUDY    45  32  60 NE7       30.31S WCI  41
TIFTON         CLOUDY    44  34  68 NE7       30.27  WCI  39
FITZGERALD     CLOUDY    44  35  70 NE6       30.30F WCI  40
CORDELE          N/A     42  30  62 NE9       30.31F WCI  37
AMERICUS       CLOUDY    45  32  61 NE9       30.31F WCI  40
HOMERVILLE     CLOUDY    45  37  76 N6        30.26R WCI  41
$$

!GMZ750-755-770-775-141600
...Coastal and Buoy Obs...

STATION/POSITION TIME  TEMP    WIND        PRES    VSBY  WAVE
                       AIR SEA DIR/SP/G                  HT/PER
                 (UTC) (F)     (DEG/KT/KT) (MB)    (MI)  (FT/S)
KEATON BEACH     1500   49      50/  9/ 14 1022.6F
CEDAR KEY        1500   57      70/ 14/ 15 1020.9S
C TOWER          1500   56      50/ 19/ 22 1022.0R
APALACHICOLA BUO 1500           60/ 16/ 19 1021.0
PANAMA CITY BUOY 1500           70/ 21/ 27 1020.0
MOBILE BUOY      1500   68      40/ 14/ 17 1021.9
ORANGE BCH AL BU 1500   55      30/ 16/ 19 1023.1
$$




USA.gov is the U.S. government's official web portal to all federal, state and local government web resources and services.